sat.trackr.live / text

‹ back to catalog

ONEWEB-0551

NORAD 56053 · 2023-043H

PAYLOAD ACTIVE UNKNOWN

§ Identity

Operator
Country
UK
Launch date
2023-03-26
Launch site
SRILR
Launch vehicle
Mass (kg)
RCS (m²)

Purposes: comms

External: N2YO · Heavens-Above · Gunter

§ Orbital elements

Epoch: 2026-05-25T00:48:40.688064Z

Period
109.46 min
Inclination
87.8989°
Eccentricity
0.0001573
Mean motion
13.15549048 rev/d
Perigee alt
1,200.6 km
Apogee alt
1,203.0 km
Semi-major
7,579.9 km
B*
4.1845e-5
RAAN
263.8402°
Arg perigee
103.7748°
Mean anomaly
256.3557°
Rev number
15,335

§ Raw data

ONEWEB-05511 56053U 23043H   26145.03380426  .00000029  00000+0  41845-4 0  99912 56053  87.8989 263.8402 0001573 103.7748 256.3557 13.15549048153351

JSON: /api/v1/satellites/56053 · /tle

For live sub-satellite position, see the globe view (requires WebGL).

§ Visibility from observer

Set your observer location to see the next 7 days of passes ≥ 10°. The values pass through the URL so the page stays shareable.

No JS? Fill the form by hand. The geolocation button needs JavaScript.